Weather in Constantsa

Romania     44˚08′59″N   28˚37′56″E
temp.,
°C
wind,
m/s
gust,
m/s
humid.,
%
clouds,
%
prec.,
mm/h
press.,
hPa
HPBL,
m
2 december, wed
wed223:00+5˚nnw8995100 1.9 1023408
02:00+6˚n8993100 4.9 1023492
05:00+6˚nne101193100 3.3 1022530
08:00+5˚n101191100 4.9 1023513
11:00+6˚n9108695 0.3 1024584
14:00+6˚n788197 0.3 1022557
17:00+7˚n8987100 0.4 1022547
20:00+6˚nnw7887100 0.5 1023526
3 december, thu
thu323:00+5˚nw669191 0.0 1023307
02:00+4˚wnw669171 0.0 1023281
05:00+4˚nw559333 0.0 1023262
08:00+3˚wnw439562 0.0 1023232
11:00+4˚wnw3290100 0.0 1023252
14:00+5˚ene118265 0.0 1022191
17:00+7˚sse338016 0.0 1021348
20:00+9˚se457816 0.0 1021529
4 december, fri
fri423:00+10˚ese677714 0.0 1020555
02:00+11˚ese787857 0.1 1019453
05:00+11˚e6785100 0.1 1018347
08:00+12˚se578667 0.2 1018396
11:00+12˚se798611 0.1 1018506
14:00+12˚ese57898 0.1 1016378
17:00+12˚ese689256 0.0 1017305
20:00+12˚ese689177 0.0 1018311
5 december, sat
sat523:00+12˚ese699491 0.0 1018344
02:00+12˚ese589295 0.0 1018357
05:00+12˚ese579277 0.0 1018311
08:00+12˚ese689161 0.0 1018408
11:00+12˚e798876 0.0 1019540
14:00+12˚e698883 0.0 1019552
17:00+12˚e7986100 0.0 1019588
20:00+12˚e8985100 0.1 1021710
6 december, sun
sun623:00+12˚e7983100 0.0 1021746
02:00+11˚e898299 0.1 1021765
05:00+11˚e8982100 0.1 1021785
08:00+11˚e91083100 0.2 1021823
11:00+11˚e8983100 0.1 1022769
14:00+11˚e8983100 0.3 1020756
17:00+11˚e9983100 0.1 1020817
20:00+10˚ese91083100 0.2 1020825